Location: Newark
(11.2914°S, 14.4718°E)
Time: 14:36:40
(UTC+00:00)

Tiros 1 despin weight - Pass Details

Date: 27 September 2019
Orbit: 594 x 643 km, 48.2° (Epoch: 15 October)

Event Time Altitude Azimuth Distance (km) Brightness Sun altitude
Rises 17:49:47 0° 325° (NW) 2,808 ? -13.5°
Reaches altitude 10° 17:52:04 10° 328° (NNW) 1,913 ? -14.1°
Maximum altitude 17:56:25 69° 50° (NE) 639 ? -15.2°
Enters shadow 17:59:43 17° 131° (SE) 1,511 ? -16.0°
Drops below altitude 10° 18:00:50 10° 134° (SE) 1,941 - -16.2°
Sets 18:03:09 0° 136° (SE) 2,854 - -16.8°
